Regional Weather Roundup
Issued by NWS Newport/Morehead, NC

Current Version | Previous Version | Graphics & Text | Print | Product List | Glossary Off
Versions: 1 2 3 4 5 6 7 8 9 10 11 12 13 14 15 16 17 18 19 20 21 22 23 24 25 26 27 28 29 30 31 32 33 34 35 36 37 38 39 40 41 42 43 44 45 46 47 48 49 50

000
ASUS42 KMHX 242025
RWRMHX
WEATHER ROUNDUP FOR EASTERN NORTH CAROLINA
NATIONAL WEATHER SERVICE NEWPORT/MOREHEAD CITY NC
400 PM EDT SUN MAY 24 2015

NOTE: "FAIR" INDICATES FEW OR NO CLOUDS BELOW 12,000 FEET
WITH NO SIGNIFICANT WEATHER AND/OR OBSTRUCTIONS TO VISIBILITY

NCZ015>017-031-032-045>047-102-103-242100-
NORTH COAST

CITY           SKY/WX    TMP DP  RH WIND       PRES   REMARKS
EDENTON          N/A     79  57  45 SE7       30.35F
ELIZABETH CITY SUNNY     78  57  48 SE12      30.36F
KITTY HAWK     CLEAR     73  50  43 SE7       30.37F
MANTEO         SUNNY     74  53  46 E10       30.38F

$$

NCZ045>047-081-094-103-104-242100-
CENTRAL COAST

CITY           SKY/WX    TMP DP  RH WIND       PRES   REMARKS
FRISCO         SUNNY     77  51  40 SE5       30.39F
SWANQUARTER      N/A     79 N/A N/A S10       30.33S

$$

NCZ095-097-098-100-101-242100-
SOUTHERN COAST

CITY           SKY/WX    TMP DP  RH WIND       PRES   REMARKS
BEAUFORT       SUNNY     77  58  51 S9        30.37F
CEDAR ISLAND     N/A     81 N/A N/A SE3G13    30.41S
JACKSONVILLE   SUNNY     79  54  41 SE7       30.36F
PINEY ISLAND   CLEAR    N/A N/A N/A E8        30.37F
WILMINGTON     MOSUNNY   79  58  48 SE7       30.37S


$$

NCZ011>013-027>030-043-044-078>080-089-090>093-098-242100-
COASTAL PLAIN

CITY           SKY/WX    TMP DP  RH WIND       PRES   REMARKS
AHOSKIE        MOSUNNY   78  53  42 S5        30.34F
CLINTON        SUNNY     82  58  43 CALM      30.34F
ELIZABETHTOWN  MOSUNNY   82  52  35 SE9       30.34F
GOLDSBORO      SUNNY     82  54  37 CALM      30.32F
GREENVILLE     MOSUNNY   81  54  39 S5        30.35F
HAVELOCK       PTSUNNY   79  57  46 SE13      30.37F
KENANSVILLE    MOSUNNY   81  52  37 SE6       30.36F
KINSTON        MOSUNNY   81  52  36 SE5       30.35F
NEW BERN       SUNNY     80  56  43 S12       30.37F
RICHLANDS      SUNNY     81  54  39 SE12      30.36F
ROCKY MOUNT    SUNNY     81  54  39 CALM      30.34F
WASHINGTON     SUNNY     79  58  47 S7        30.36F
WHITEVILLE     MOSUNNY   80  57  44 S8        30.34F

$$

AMZ130-135-150-152-154-156-158-170-250-252-270-ANZ085-086-088-633-658-670-242100-
MARINE OBSERVATIONS

STATION/POSITION TIME  TEMP    WIND        PRES    WAVE   SWELL
                       AIR SEA DIR/SP/G            HT/PER HT/PER
                 (UTC) (F)     (DEG/KT/KT) (MB)    (FT/S) (FT/S)
CHESAPEAKE LIGHT 2000   64     150/ 18/ 19 1028.4
64 E VA BEACH    1950   64 62  140/  6/  6 1028.8    1/10   2/10
DUCK             2000   68 65  130/ 12/ 13 1027.5
2 E DUCK         1911      65                N/A     2/ 5
OREGON INLET     2000   70 71  100/  7/ 12 1028.8
13E OREGON INLT  2000      66                N/A     2/ 7
HATTERAS CG      2000   75 73  130/  5/  6 1028.4
DIAMOND BUOY     1950   73 78   30/  6/  8 1028.9    2/ 8   2/ 8
CAPE LOOKOUT     2000   74      80/  6/  8 1028.2
BEAUFORT LAB     2000   75 74  120/  8/ 11 1027.7
27 SE WRIGHTSVLE 2000   72 77  130/ 10/ 12   N/A
5 SE WRIGHTSVLE  1908   75 77  130/  8/ 12 1028.6
225 S CAPE HAT   1950   72 74   80/ 16/ 21 1027.0    6/ 7
41 SE CHARLESTON 1950   76 75   90/ 14/ 16 1026.2    4/ 8   2/ 8

$$



USA.gov is the U.S. government's official web portal to all federal, state and local government web resources and services.